User: anonymous   Login
Location: *
(49.0044°N, 9.5056°E)
Time: 09:28:49
(UTC+00:00)
Language:

Cosmos 1603 - Orbit

View from above orbital plane
View from above orbital plane
View from above satellite
View from above satellite

Ground track
Ground track

The orbit data is extracted from the following two-line orbital elements,

1 15333U 84106A   19325.76631032 -.00000304  00000-0 -13459-3 0  9996
2 15333  71.0282  33.7363 0022217 292.9975  66.8803 14.14093755813731
Epoch (UTC): 21 November 2019 18:23:29
Eccentricity: 0.0022217
inclination: 71.0282°
perigee height: 829 km
apogee height: 861 km
right ascension of ascending node: 33.7363°
argument of perigee: 292.9975°
revolutions per day: 14.14093755
mean anomaly at epoch: 66.8803°
orbit number at epoch: 81373

The dashed part of the orbit path shows where the satellite is in the earth's shadow,  

DLR